Home   Weather   Granby   Past weeks

Flag for Canada Past Weather in Granby, Quebec, Canada — Yesterday and Last 2 Weeks

Now
43 °F

Quite cool.


Feels Like: 41 °F
Forecast: N/A
Wind: 5 mph from West

Location: Frelighsburg

Current Time: Feb 19, 2017 at 4:23:42 pm

Latest Report: Feb 19, 2017 at 4:00 pm


Visibility: N/A

Pressure: 29.77 "Hg

Humidity: 64%

Dew Point: 32 °F

Location of GranbyLocation

Past Weather in Granby — Graph

°F

Granby Temperature Yesterday

Maximum temperature yesterday: 47 °F (at 4:00 pm)
Minimum temperature yesterday: 17 °F (at 12:00 am)
Average temperature yesterday: 34 °F

High & Low Weather Summary for the Past Weeks

 TemperatureHumidityPressure
High47 °F (Feb 18, 4:00 pm)100% (Feb 12, 12:00 am)30.19 "Hg (Feb 12, 12:00 am)
Low1 °F (Feb 9, 10:00 pm)45% (Feb 18, 12:00 pm)29.26 "Hg (Feb 8, 4:00 am)
Average21 °F79%29.78 "Hg
* Reported Feb 4 3:00 pm — Feb 19 3:00 pm, Granby, Weather by CustomWeather, © 2017

Note: Actual official high and low records may vary slightly from our data, if they occured in-between our weather recording intervals... More about our weather records

Advertising

Granby Weather History for the Previous 24 Hours

Scroll right to see more
 ConditionsComfort  
Time TempWeatherWind HumidityBarometerVisibility
3:00 pm
Sun, Feb 19
43 °FQuite cool.6 mph65%29.74 "HgN/A
2:00 pm43 °FQuite cool.6 mph64%29.71 "HgN/A
1:00 pm42 °FQuite cool.6 mph72%29.70 "HgN/A
12:00 pm41 °FQuite cool.6 mph74%29.67 "HgN/A
11:00 am42 °FQuite cool.5 mph76%29.66 "HgN/A
10:00 am42 °FQuite cool.6 mph76%29.63 "HgN/A
9:00 am42 °FQuite cool.3 mph78%29.62 "HgN/A
8:00 am41 °FQuite cool.3 mph80%29.62 "HgN/A
7:00 am41 °FQuite cool.5 mph78%29.60 "HgN/A
6:00 am41 °FQuite cool.3 mph80%29.59 "HgN/A
5:00 am42 °FQuite cool.5 mph78%29.59 "HgN/A
4:00 am43 °FQuite cool.5 mph75%29.58 "HgN/A
3:00 am44 °FQuite cool.3 mph73%29.56 "HgN/A
2:00 am43 °FQuite cool.5 mph73%29.54 "HgN/A
1:00 am44 °FQuite cool.5 mph72%29.51 "HgN/A
12:00 am45 °FQuite cool.5 mph70%29.49 "HgN/A
11:00 pm
Sat, Feb 18
46 °FCool.5 mph67%29.48 "HgN/A
10:00 pm46 °FCool.6 mph65%29.46 "HgN/A
9:00 pm42 °FQuite cool.5 mph66%29.44 "HgN/A
8:00 pm43 °FQuite cool.3 mph65%29.43 "HgN/A
7:00 pm42 °FQuite cool.6 mph63%29.42 "HgN/A
6:00 pm43 °FQuite cool.5 mph60%29.40 "HgN/A
5:00 pm45 °FCool.3 mph54%29.40 "HgN/A
4:00 pm47 °FCool.8 mph50%29.38 "HgN/A
Weather by CustomWeather, © 2017

See weather overviewHow to use our weather pages